TimeEDT,TemperatureF,Dew PointF,Humidity,Sea Level PressureIn,VisibilityMPH,Wind Direction,Wind SpeedMPH,Gust SpeedMPH,PrecipitationIn,Events,Conditions,WindDirDegrees,DateUTC
12:53 AM,73.0,70.0,90,30.17,10.0,Calm,Calm,-,N/A,,Clear,0,2013-07-03 04:53:00
1:53 AM,73.0,69.1,87,30.18,10.0,Calm,Calm,-,N/A,,Clear,0,2013-07-03 05:53:00
2:53 AM,72.0,69.1,91,30.17,10.0,Calm,Calm,-,N/A,,Clear,0,2013-07-03 06:53:00
3:53 AM,71.1,69.1,93,30.17,10.0,South,3.5,-,N/A,,Mostly Cloudy,170,2013-07-03 07:53:00
4:53 AM,71.1,69.1,93,30.19,10.0,South,3.5,-,N/A,,Clear,170,2013-07-03 08:53:00
5:53 AM,71.1,69.1,93,30.20,10.0,Calm,Calm,-,N/A,,Clear,0,2013-07-03 09:53:00
6:53 AM,72.0,70.0,93,30.21,10.0,Calm,Calm,-,N/A,,Clear,0,2013-07-03 10:53:00
7:13 AM,73.4,69.8,88,30.22,10.0,Calm,Calm,-,N/A,,Mostly Cloudy,0,2013-07-03 11:13:00
7:48 AM,73.4,71.6,94,30.22,10.0,Calm,Calm,-,N/A,,Overcast,0,2013-07-03 11:48:00
7:53 AM,73.9,71.1,91,30.22,10.0,Variable,4.6,-,N/A,,Mostly Cloudy,0,2013-07-03 11:53:00
8:42 AM,75.2,71.6,89,30.23,10.0,Variable,3.5,-,0.00,Rain,Light Rain,0,2013-07-03 12:42:00
8:53 AM,75.9,71.1,85,30.23,10.0,South,5.8,-,0.00,Rain,Light Rain,190,2013-07-03 12:53:00
9:25 AM,75.2,71.6,89,30.23,10.0,Variable,3.5,-,0.00,,Mostly Cloudy,0,2013-07-03 13:25:00
9:53 AM,77.0,72.0,84,30.23,10.0,South,4.6,-,0.00,,Overcast,180,2013-07-03 13:53:00
10:53 AM,81.0,73.0,77,30.23,10.0,South,5.8,-,N/A,,Overcast,170,2013-07-03 14:53:00
11:53 AM,82.0,73.0,74,30.22,10.0,Variable,5.8,-,N/A,,Overcast,0,2013-07-03 15:53:00
12:03 PM,82.4,73.4,74,30.22,10.0,Variable,5.8,-,N/A,,Mostly Cloudy,0,2013-07-03 16:03:00
12:11 PM,82.4,73.4,74,30.22,10.0,Calm,Calm,-,N/A,,Scattered Clouds,0,2013-07-03 16:11:00
12:48 PM,82.4,73.4,74,30.21,10.0,Variable,4.6,-,N/A,,Mostly Cloudy,0,2013-07-03 16:48:00
12:53 PM,82.0,72.0,71,30.21,10.0,Variable,3.5,-,N/A,,Mostly Cloudy,0,2013-07-03 16:53:00
1:06 PM,80.6,71.6,74,30.22,10.0,Variable,3.5,-,N/A,,Mostly Cloudy,0,2013-07-03 17:06:00
1:41 PM,82.4,71.6,70,30.20,10.0,Variable,5.8,-,N/A,,Mostly Cloudy,0,2013-07-03 17:41:00
1:53 PM,84.0,72.0,67,30.19,10.0,Variable,4.6,-,N/A,,Mostly Cloudy,0,2013-07-03 17:53:00
2:04 PM,82.4,73.4,74,30.19,10.0,Calm,Calm,-,N/A,,Mostly Cloudy,0,2013-07-03 18:04:00
2:53 PM,84.9,72.0,65,30.18,10.0,Variable,3.5,-,N/A,,Clear,0,2013-07-03 18:53:00
3:53 PM,84.9,71.1,63,30.17,10.0,Variable,6.9,-,N/A,,Mostly Cloudy,0,2013-07-03 19:53:00
4:53 PM,84.9,72.0,65,30.16,10.0,Variable,4.6,-,N/A,,Clear,0,2013-07-03 20:53:00
5:53 PM,84.0,73.9,72,30.15,10.0,South,4.6,-,N/A,,Mostly Cloudy,180,2013-07-03 21:53:00
6:11 PM,80.6,75.2,84,30.17,1.2,SSE,10.4,19.6,0.00,Rain,Light Rain,150,2013-07-03 22:11:00
6:14 PM,78.8,73.4,83,30.16,0.8,ENE,3.5,19.6,0.00,Rain,Heavy Rain,60,2013-07-03 22:14:00
6:20 PM,78.8,73.4,83,30.16,1.0,Calm,Calm,-,0.00,Rain,Light Rain,0,2013-07-03 22:20:00
6:28 PM,80.6,75.2,84,30.16,10.0,Calm,Calm,-,0.00,,Mostly Cloudy,0,2013-07-03 22:28:00
6:53 PM,81.0,77.0,88,30.16,10.0,Calm,Calm,-,0.00,,Mostly Cloudy,0,2013-07-03 22:53:00
7:53 PM,80.1,78.1,94,30.16,10.0,SSE,3.5,-,N/A,,Clear,160,2013-07-03 23:53:00
8:53 PM,77.0,75.9,96,30.18,3.0,Calm,Calm,-,N/A,,Clear,0,2013-07-04 00:53:00
9:07 PM,77.0,75.2,94,30.19,1.5,Calm,Calm,-,N/A,,Clear,0,2013-07-04 01:07:00
9:10 PM,77.0,75.2,94,30.19,1.0,Calm,Calm,-,N/A,,Mist,0,2013-07-04 01:10:00
9:18 PM,75.2,75.2,100,30.19,0.8,Calm,Calm,-,N/A,,Mist,0,2013-07-04 01:18:00
9:43 PM,75.2,75.2,100,30.20,0.2,Calm,Calm,-,N/A,Fog,Fog,0,2013-07-04 01:43:00
9:51 PM,75.2,75.2,100,30.20,0.8,Calm,Calm,-,N/A,,Mist,0,2013-07-04 01:51:00
9:53 PM,75.0,73.9,96,30.20,0.8,Calm,Calm,-,N/A,,Mist,0,2013-07-04 01:53:00
9:58 PM,75.2,75.2,100,30.20,1.2,Calm,Calm,-,N/A,,Scattered Clouds,0,2013-07-04 01:58:00
10:36 PM,75.2,73.4,94,30.21,0.5,Calm,Calm,-,N/A,Fog,Fog,0,2013-07-04 02:36:00
10:49 PM,75.2,73.4,94,30.21,1.8,Calm,Calm,-,N/A,,Clear,0,2013-07-04 02:49:00
10:53 PM,75.0,73.9,96,30.20,1.8,Calm,Calm,-,N/A,,Clear,0,2013-07-04 02:53:00
11:03 PM,75.2,73.4,94,30.21,2.0,Calm,Calm,-,N/A,,Clear,0,2013-07-04 03:03:00
11:10 PM,75.2,73.4,94,30.21,1.0,Calm,Calm,-,N/A,,Clear,0,2013-07-04 03:10:00
11:17 PM,75.2,73.4,94,30.21,0.8,Calm,Calm,-,N/A,,Clear,0,2013-07-04 03:17:00
11:24 PM,75.2,73.4,94,30.21,1.5,Calm,Calm,-,N/A,,Clear,0,2013-07-04 03:24:00
11:42 PM,73.4,73.4,100,30.21,1.0,Calm,Calm,-,N/A,,Mist,0,2013-07-04 03:42:00
11:49 PM,73.4,73.4,100,30.21,0.5,Calm,Calm,-,N/A,Fog,Fog,0,2013-07-04 03:49:00
11:53 PM,75.0,73.9,96,30.20,1.0,Calm,Calm,-,N/A,,Mist,0,2013-07-04 03:53:00